Pontianak, Indonesia

6:42 AM WIB on August 18, 2017 (GMT +0700)
Supadio

Weather History for WIOO - August, 2013

Change the Weather History Date:

Monday, August 19, 2013

  Actual Average Record
Temperature  
Mean Temperature 82 °F -  
Max Temperature 92 °F - - ()
Min Temperature 73 °F - - ()
Cooling Degree Days 18    
Growing Degree Days 32 (Base 50)    
Moisture  
Dew Point 74 °F    
Average Humidity 77    
Maximum Humidity 100    
Minimum Humidity 45    
Precipitation  
Precipitation 0.00 in - - ()
Sea Level Pressure  
Sea Level Pressure 29.78 in    
Wind  
Wind Speed 3 mph ()    
Max Wind Speed 13 mph    
Max Gust Speed -    
Visibility 4.8 miles    
Events      
T = Trace of Precipitation, MM = Missing Value Source: Averaged Metar Reports

Daily Weather History Graph

Daily Weather History Graph

Search for Another Location

Airport or City:

Trip Planner

Search our weather history database for the weather conditions in past years. The results will help you decide how hot, cold, wet, or windy it might be!

Date:

Astronomy

Aug. 19, 2013 Rise Set
Actual Time 5:42 AM WIB 5:49 PM WIB
Civil Twilight 5:21 AM WIB 6:10 PM WIB
Nautical Twilight 4:57 AM WIB 6:35 PM WIB
Astronomical Twilight 4:32 AM WIB 6:59 PM WIB
Moon 4:08 PM WIB (8/19) 3:37 AM WIB (8/19)
Length of Visible Light 12h 48m
Length of Day
12h 06m
Waxing Gibbous, 95% of the Moon is Illuminated
Aug 19
Waxing Gibbous
Aug 21
Full
Aug 28
Last Quarter
Sep 5
New
Sep 13
First Quarter

Hourly Weather History & Observations

Time (WIB) Temp. Heat Index Dew Point Humidity Pressure Visibility Wind Dir Wind Speed Gust Speed Precip Events Conditions
1:00 AM 76 °F - 74 °F 94% 29.83 in 4 mi Calm Calm - -   Scattered Clouds
4:00 AM 76 °F - 74 °F 91% 29.78 in 4 mi Calm Calm - -   Scattered Clouds
5:00 AM 75.2 °F - 73.4 °F 94% 29.77 in 3.7 mi Calm Calm - N/A   Partly Cloudy
5:30 AM 75.2 °F - 73.4 °F 94% 29.80 in 0.6 mi Calm Calm - N/A   Partly Cloudy
6:00 AM 73.4 °F - 73.4 °F 100% 29.80 in 1.2 mi Calm Calm - N/A   Haze
6:30 AM 73.4 °F - 73.4 °F 100% 29.80 in 2.5 mi Calm Calm - N/A   Haze
7:00 AM 76 °F - 74 °F 94% 29.82 in 2 mi Calm Calm - -   Mist
7:00 AM 75.2 °F - 75.2 °F 100% 29.80 in 2.5 mi Calm Calm - N/A   Partly Cloudy
7:30 AM 78.8 °F - 75.2 °F 89% 29.83 in 3.7 mi Calm Calm - N/A   Partly Cloudy
8:00 AM 78.8 °F - 75.2 °F 89% 29.83 in 5.0 mi SE 5.8 mph - N/A   Partly Cloudy
8:30 AM 80.6 °F 85.4 °F 73.4 °F 79% 29.83 in 6.2 mi South 6.9 mph - N/A   Partly Cloudy
9:00 AM 80.6 °F 85.4 °F 73.4 °F 79% 29.83 in 6.2 mi SSE 8.1 mph - N/A   Partly Cloudy
9:30 AM 82.4 °F 88.2 °F 73.4 °F 74% 29.83 in 6.2 mi SSE 9.2 mph - N/A   Partly Cloudy
10:00 AM 85 °F - 74 °F 63% 29.84 in 6 mi South 6.9 mph - -   Scattered Clouds
10:00 AM 84.2 °F 90.9 °F 73.4 °F 70% 29.83 in 6.2 mi South 6.9 mph - N/A   Partly Cloudy
10:30 AM 86.0 °F 93.4 °F 73.4 °F 66% 29.80 in 6.2 mi SE 8.1 mph - N/A   Partly Cloudy
11:00 AM 87.8 °F 97.6 °F 75.2 °F 66% 29.80 in 6.2 mi SE 4.6 mph - N/A   Partly Cloudy
11:30 AM 87.8 °F 95.6 °F 73.4 °F 62% 29.80 in 6.2 mi SSE 8.1 mph - N/A   Scattered Clouds
12:00 PM 89.6 °F 98.2 °F 73.4 °F 59% 29.77 in 6.2 mi SSE 8.1 mph - N/A   Scattered Clouds
12:30 PM 89.6 °F 98.2 °F 73.4 °F 59% 29.77 in 6.2 mi Calm Calm - N/A   Mostly Cloudy
1:00 PM 91 °F - 72 °F 45% 29.76 in 6 mi Calm Calm - -   Mostly Cloudy
1:00 PM 91.4 °F 98.4 °F 71.6 °F 52% 29.74 in 6.2 mi Calm Calm - N/A   Mostly Cloudy
1:30 PM 91.4 °F 98.4 °F 71.6 °F 52% 29.74 in 6.2 mi Calm Calm - N/A   Mostly Cloudy
2:00 PM 91.4 °F 98.4 °F 71.6 °F 52% 29.71 in 6.2 mi ESE 6.9 mph - N/A   Mostly Cloudy
2:30 PM 91.4 °F 98.4 °F 71.6 °F 52% 29.71 in 6.2 mi SSW 9.2 mph - N/A   Mostly Cloudy
3:30 PM 89.6 °F 98.2 °F 73.4 °F 59% 29.71 in 6.2 mi SSW 6.9 mph - N/A   Mostly Cloudy
4:00 PM 90 °F - 74 °F 51% 29.72 in 6 mi WSW 4.6 mph - -   Partly Cloudy
4:00 PM 89.6 °F 99.8 °F 75.2 °F 62% 29.71 in 6.2 mi WSW 4.6 mph - N/A   Scattered Clouds
4:30 PM 87.8 °F 97.6 °F 75.2 °F 66% 29.71 in 6.2 mi WSW 12.7 mph - N/A   Scattered Clouds
5:00 PM 86.0 °F 95.1 °F 75.2 °F 70% 29.71 in 6.2 mi WSW 12.7 mph - N/A   Scattered Clouds
5:30 PM 84.2 °F 94.1 °F 77.0 °F 79% 29.74 in 6.2 mi WSW 11.5 mph - N/A   Scattered Clouds
6:30 PM 82.4 °F 89.5 °F 75.2 °F 79% 29.74 in 3.7 mi WSW 8.1 mph - N/A   Scattered Clouds
7:00 PM 80 °F - 75 °F 81% 29.80 in 4 mi WSW 6.9 mph - -   Partly Cloudy
7:00 PM 80.6 °F 86.2 °F 75.2 °F 84% 29.77 in 3.7 mi WSW 6.9 mph - N/A   Partly Cloudy
7:30 PM 80.6 °F 86.2 °F 75.2 °F 84% 29.80 in 3.7 mi WSW 5.8 mph - N/A   Partly Cloudy
8:00 PM 78.8 °F - 75.2 °F 89% 29.80 in 3.7 mi SW 8.1 mph - N/A   Partly Cloudy
8:30 PM 78.8 °F - 75.2 °F 89% 29.80 in 3.7 mi SW 3.5 mph - N/A   Partly Cloudy
9:00 PM 78.8 °F - 75.2 °F 89% 29.80 in 3.7 mi SW 3.5 mph - N/A   Partly Cloudy
9:30 PM 77.0 °F - 75.2 °F 94% 29.83 in 3.7 mi Calm Calm - N/A   Scattered Clouds
10:00 PM 77.0 °F - 75.2 °F 94% 29.83 in 3.7 mi Calm Calm - N/A   Scattered Clouds
10:30 PM 77.0 °F - 75.2 °F 94% 29.83 in 3.7 mi SW 3.5 mph - N/A   Scattered Clouds